Craig, CO

3:31 AM MST on January 24, 2018 (GMT -0700)
Craig-Moffat

Weather History for KCAG - November, 2013

Change the Weather History Date:

Tuesday, November 5, 2013

  Actual Average Record
Temperature  
Mean Temperature 13 °F 35 °F  
Max Temperature 26 °F 50 °F 69 °F (1999)
Min Temperature 1 °F 21 °F 1 °F (2013)
Degree Days  
Heating Degree Days 52 30  
Month to date heating degree days 128 145  
Since 1 July heating degree days 1018 1190  
Cooling Degree Days 0 0  
Month to date cooling degree days 0 0  
Year to date cooling degree days 377 142  
Moisture  
Dew Point 14 °F    
Average Humidity 87    
Maximum Humidity 96    
Minimum Humidity 77    
Precipitation  
Precipitation T in 0.06 in 0.32 in (2011)
Month to date precipitation 0.35 0.29  
Year to date precipitation 11.86 13.90  
Sea Level Pressure  
Sea Level Pressure 30.23 in    
Wind  
Wind Speed 3 mph (SW)    
Max Wind Speed 9 mph    
Max Gust Speed -    
Visibility 8 miles    
Events Snow    
T = Trace of Precipitation, MM = Missing Value Source: NWS Daily Summary

Daily Weather History Graph

Daily Weather History Graph

Search for Another Location

Airport or City:

Trip Planner

Search our weather history database for the weather conditions in past years. The results will help you decide how hot, cold, wet, or windy it might be!

Date:

Astronomy

Nov. 05, 2013 Rise Set
Actual Time 6:45 AM MST 5:01 PM MST
Civil Twilight 6:16 AM MST 5:30 PM MST
Nautical Twilight 5:43 AM MST 6:02 PM MST
Astronomical Twilight 5:12 AM MST 6:34 PM MST
Moon 9:03 AM MST (11/5) 7:05 PM MST (11/5)
Length of Visible Light 11h 13m
Length of Day
10h 16m
Waxing Crescent, 7% of the Moon is Illuminated
Nov 5
Waxing Crescent
Nov 9
First Quarter
Nov 17
Full
Nov 25
Last Quarter
Dec 2
New

Hourly Weather History & Observations

Time (MST) Temp. Windchill Dew Point Humidity Pressure Visibility Wind Dir Wind Speed Gust Speed Precip Events Conditions
12:03 AM 24.8 °F - 21.2 °F 86% 30.04 in 1.8 mi Calm Calm - 0.00 in Snow Light Snow
12:05 AM 24.8 °F - 23.0 °F 93% 30.04 in 2.0 mi Calm Calm - 0.00 in Snow Light Snow
12:16 AM 24.8 °F 20.5 °F 21.2 °F 86% 30.04 in 3.0 mi WNW 3.5 mph - 0.00 in Snow Light Snow
12:23 AM 24.8 °F 19.1 °F 21.2 °F 86% 30.04 in 5.0 mi WNW 4.6 mph - 0.00 in Snow Light Snow
12:44 AM 24.8 °F 19.1 °F 21.2 °F 86% 30.05 in 4.0 mi WSW 4.6 mph - 0.00 in Snow Light Snow
12:53 AM 24.1 °F 18.2 °F 21.0 °F 88% 30.16 in 6.0 mi SSW 4.6 mph - 0.00 in Snow Light Snow
1:53 AM 25.0 °F 17.1 °F 19.0 °F 78% 30.15 in 9.0 mi WSW 6.9 mph - 0.00 in   Overcast
2:53 AM 19.9 °F 13.4 °F 17.1 °F 89% 30.18 in 10.0 mi SSW 4.6 mph - 0.00 in   Scattered Clouds
3:05 AM 19.4 °F 12.8 °F 17.6 °F 93% 30.05 in 10.0 mi South 4.6 mph - N/A   Mostly Cloudy
3:30 AM 19.4 °F 12.8 °F 15.8 °F 86% 30.06 in 10.0 mi West 4.6 mph - N/A   Overcast
3:53 AM 21.0 °F - 16.0 °F 81% 30.20 in 10.0 mi Calm Calm - N/A   Overcast
4:53 AM 14.0 °F - 10.9 °F 88% 30.25 in 10.0 mi Calm Calm - N/A   Scattered Clouds
5:53 AM 10.0 °F - 7.0 °F 87% 30.29 in 10.0 mi Calm Calm - N/A   Clear
6:46 AM 8.6 °F 2.0 °F 6.8 °F 92% 30.13 in 10.0 mi SW 3.5 mph - N/A   Partly Cloudy
6:53 AM 7.0 °F - 3.9 °F 87% 30.33 in 10.0 mi Calm Calm - N/A   Scattered Clouds
7:01 AM 8.6 °F - 5.0 °F 85% 30.14 in 4.0 mi Calm Calm - N/A   Mostly Cloudy
7:35 AM 12.2 °F - 8.6 °F 85% 30.16 in 10.0 mi Calm Calm - N/A   Overcast
7:53 AM 12.9 °F - 10.0 °F 88% 30.33 in 10.0 mi Calm Calm - N/A   Overcast
8:10 AM 12.2 °F - 10.4 °F 92% 30.17 in 1.5 mi Calm Calm - N/A   Overcast
8:12 AM 12.2 °F - 10.4 °F 92% 30.17 in 0.8 mi Calm Calm - N/A   Overcast
8:23 AM 12.2 °F - 12.2 °F 100% 30.17 in 1.2 mi Calm Calm - N/A   Overcast
8:26 AM 12.2 °F - 12.2 °F 100% 30.17 in 0.8 mi Calm Calm - N/A   Overcast
8:49 AM 14.0 °F 8.2 °F 12.2 °F 93% 30.18 in 1.0 mi SSW 3.5 mph - N/A   Mist
8:53 AM 14.0 °F - 12.9 °F 95% 30.36 in 1.2 mi Calm Calm - N/A   Overcast
8:59 AM 14.0 °F 8.2 °F 12.2 °F 93% 30.18 in 3.0 mi SW 3.5 mph - N/A   Mostly Cloudy
9:10 AM 14.0 °F 8.2 °F 12.2 °F 93% 30.18 in 7.0 mi SSW 3.5 mph - N/A   Scattered Clouds
9:53 AM 17.1 °F - 15.1 °F 92% 30.36 in 10.0 mi Calm Calm - N/A   Clear
10:53 AM 21.0 °F 14.6 °F 16.0 °F 81% 30.35 in 10.0 mi SW 4.6 mph - N/A   Clear
11:53 AM 1.0 °F -14.0 °F - N/A% 30.43 in 10.0 mi WSW 9.2 mph - N/A   Clear
12:53 PM 1.0 °F -14.0 °F - N/A% 30.42 in 10.0 mi WSW 9.2 mph - N/A   Partly Cloudy
1:53 PM - - - N/A% 30.19 in 10.0 mi WSW 8.1 mph - N/A   Partly Cloudy
2:53 PM 1.0 °F -10.3 °F - N/A% 30.45 in 10.0 mi SW 5.8 mph - N/A   Clear
3:53 PM 1.0 °F -6.7 °F - N/A% 30.46 in 10.0 mi South 3.5 mph - N/A   Clear
4:53 PM - - - N/A% 30.22 in 10.0 mi SW 3.5 mph - N/A   Scattered Clouds
5:53 PM - - - N/A% 30.24 in 10.0 mi SE 3.5 mph - N/A   Overcast
6:53 PM - - - N/A% 30.26 in 10.0 mi Calm Calm - N/A   Overcast
7:53 PM - - - N/A% 30.27 in 10.0 mi Calm Calm - N/A   Mostly Cloudy
8:53 PM - - - N/A% 30.29 in 10.0 mi Calm Calm - N/A   Mostly Cloudy
9:53 PM - - - N/A% 30.30 in 10.0 mi Calm Calm - N/A   Clear
10:53 PM - - - N/A% 30.31 in 10.0 mi Calm Calm - N/A   Scattered Clouds
11:53 PM - - - N/A% 30.31 in 10.0 mi Calm Calm - N/A   Scattered Clouds